Location: Boiro
(42.6475°N, 8.8834°W)
Time: 14:30:56
(UTC+02:00)

Explorer 7 - Pass Details

Date: 05 July 2022
Orbit: 482 x 668 km, 50.3° (Epoch: 15 August)

Event Time Altitude Azimuth Distance (km) Brightness Sun altitude
Rises 04:52:09 0° 300° (WNW) 2,977 10.6 -17.8°
Reaches altitude 10° 04:54:33 10° 302° (WNW) 2,044 9.7 -17.6°
Maximum altitude 04:59:16 81° 30° (NNE) 634 7.1 -17.1°
Drops below altitude 10° 05:03:43 10° 118° (ESE) 1,929 9.7 -16.7°
Sets 05:05:56 0° 119° (ESE) 2,796 10.5 -16.4°
